Temp_Advection
nan nan nan nan nan nan nan nan nan nan nan nan nan nan nan nan nan nan nan nan nan nan nan nan nan nan nan nan nan nan nan nan
nan 0 0 0 0 0 0 -0 -0 0 0 0 0 -0 -0 -0 -0 -0 -0 0 -0 -0 -0 -0 -0 0 0 0 0 0 -0 nan
nan 0 0 -0 -0 -0 0 0 0 0 0 0 0 0 0 0 0 -0 -0 -0 -0 -0 -0 -0 0 0 0 0 0 -0 -0 nan
nan 0 0 0 0 0 0 0 0 -0 -0 0 -0 -0 -0 -0 0 0 0 -0 -0 -0 -1 -1 -1 -0 -0 -0 0 0 0 nan
nan -0 -0 0 -0 -0 -0 -0 -0 -0 -1 -0 -0 -0 -1 -1 -1 -0 0 -0 -0 -0 -0 -0 -1 -1 -0 -0 0 0 0 nan
nan -0 -0 -0 -0 -0 -0 -0 -0 -0 -0 -0 -0 -0 -0 -0 -0 -1 -0 -0 -0 0 -0 -0 -0 -1 -1 -0 0 0 0 nan
nan -0 -0 -0 -0 -0 -0 -0 -0 -0 -0 -0 -0 -0 -0 -0 -0 -1 -1 -1 -1 -0 0 -0 -0 -0 -1 -1 -1 -1 -0 nan
nan -0 -0 -0 -0 -0 -0 -0 -0 -0 -0 -0 -0 0 0 0 -0 -0 -0 -1 -1 -1 -0 -0 -0 -0 -0 -0 -0 -0 -0 nan
nan -0 -0 -0 -0 -0 -0 -0 -0 -0 -0 -0 -0 -0 0 0 0 -0 -0 -0 -1 -1 -0 -0 -0 -0 -0 -0 -0 -0 0 nan
nan -0 -0 -0 -0 -0 -0 -0 -0 -0 -0 -0 -0 -1 -0 -0 0 -0 -0 -0 -0 -0 -0 -0 -0 -0 -0 -0 -0 -0 -0 nan
nan -0 -0 -0 -0 -0 -0 -0 -0 -0 -0 -0 -0 -0 -0 -0 0 0 0 -0 -0 -0 -0 -0 -0 -0 -0 -0 -0 -0 -0 nan
nan -0 -0 -0 -0 -0 0 0 -0 -0 -0 0 -0 -0 0 0 0 0 0 0 0 0 -0 0 0 -0 -0 -0 -0 -0 -0 nan
nan -0 -0 -0 -0 0 0 -0 -0 -0 -0 -0 0 0 0 -0 -0 0 0 0 0 1 0 -0 0 0 0 0 -0 -0 -0 nan
nan -0 -0 -0 0 -0 -0 -0 -0 -0 -0 -0 -0 0 0 -0 -0 -0 -0 0 -1 -0 1 0 0 0 0 0 0 0 -0 nan
nan -0 -0 -0 -0 -0 -0 -0 -0 -0 -0 -0 1 -0 0 0 0 0 -0 -0 0 -0 0 0 0 -0 -0 0 0 0 -0 nan
nan -0 -0 -0 -0 -0 -0 -0 -0 -0 -0 -0 0 0 -0 -0 -0 0 -0 -0 0 -0 0 0 0 0 -0 0 0 -0 -0 nan
nan -0 -0 -0 -0 -0 -0 -0 -0 -0 -0 -0 -1 0 0 -0 -0 0 0 0 -0 -0 -0 0 0 0 0 0 0 0 0 nan
nan -0 -0 -0 -0 -0 -0 -0 -0 -0 -0 -0 -0 -0 -0 0 0 0 0 0 0 -0 -0 -0 -0 0 0 0 0 0 0 nan
nan nan nan nan nan nan nan nan nan nan nan nan nan nan nan nan nan nan nan nan nan nan nan nan nan nan nan nan nan nan nan nan
Wind_Speed
12 10 5 5 5 5 7 6 6 7 7 6 7 9 10 8 10 13 13 14 18 15 22 26 25 30 28 30 28 29 28 28
13 9 8 7 6 4 4 5 4 2 2 10 12 12 9 11 12 14 16 16 14 12 15 17 21 24 25 26 27 28 33 31
13 12 9 8 4 4 5 4 5 9 13 16 18 19 19 17 15 16 17 17 19 20 20 18 17 17 16 17 17 22 27 32
14 13 10 6 5 3 3 6 12 16 20 22 21 23 26 27 27 27 24 24 24 23 23 23 25 26 26 25 24 23 22 21
17 13 11 8 5 2 8 13 17 21 22 22 24 28 30 30 30 29 26 24 25 26 25 24 24 23 23 25 23 22 23 24
15 12 8 4 4 8 12 15 20 22 22 24 29 27 25 24 21 21 22 22 24 26 27 27 27 27 27 27 27 26 22 21
15 10 5 4 5 9 14 18 21 21 24 29 26 28 24 22 21 21 22 23 23 23 22 20 19 19 18 19 20 22 29 31
14 8 4 4 8 12 15 19 19 21 30 26 25 26 21 19 19 20 23 25 26 25 25 23 21 20 20 20 20 21 20 20
9 5 3 4 8 11 15 17 19 23 33 28 26 24 20 16 16 17 21 26 28 25 24 22 24 23 21 20 22 22 21 21
9 6 5 5 8 11 13 16 20 26 34 29 24 22 16 15 18 21 24 29 30 26 24 24 23 20 19 21 20 18 18 20
8 5 4 5 8 10 12 17 20 28 33 29 21 19 17 17 20 23 25 29 31 31 28 27 24 21 21 22 22 20 20 18
5 4 4 7 9 10 14 17 21 28 29 26 25 20 19 19 21 25 27 30 31 27 29 29 24 25 24 22 23 23 23 21
6 5 6 9 9 12 13 17 24 24 29 24 21 19 18 20 23 25 27 33 32 25 26 28 20 18 17 17 19 18 21 21
7 7 8 7 9 10 15 19 23 24 29 26 23 21 21 22 21 25 30 31 33 23 23 24 19 19 19 18 19 20 21 22
8 9 8 7 9 12 16 19 20 24 29 30 21 19 21 22 23 28 28 29 25 21 20 20 18 19 21 20 21 22 22 22
11 9 6 6 9 13 17 18 18 24 28 33 23 17 18 22 23 28 26 28 28 20 20 19 18 18 19 19 19 20 22 23
10 6 4 7 11 15 18 15 18 25 28 34 22 15 18 23 23 29 29 28 29 19 22 19 21 18 19 19 19 22 20 21
9 6 9 11 12 13 14 15 20 25 29 34 24 18 20 21 25 27 30 28 23 16 18 19 19 16 17 19 17 21 20 18
11 8 4 5 7 11 13 15 18 23 29 31 24 18 20 22 25 25 28 27 21 19 18 19 18 17 19 18 16 15 16 15
Wind_Direction
188 188 199 291 249 284 311 316 335 321 334 339 345 330 329 331 320 309 309 298 299 279 280 274 282 269 271 261 266 260 260 265
179 177 200 208 198 229 286 132 116 334 311 322 320 323 306 295 293 290 288 289 292 295 287 276 260 263 266 258 265 264 264 266
177 185 173 163 126 153 184 253 305 317 319 320 317 316 316 312 304 300 296 291 290 288 285 279 276 271 265 260 263 267 265 263
157 141 145 160 160 175 259 303 311 315 314 311 306 304 302 301 301 302 301 300 297 295 293 288 284 282 279 273 268 263 263 264
133 135 133 129 109 357 316 321 326 329 327 326 326 322 318 313 305 302 298 297 298 297 295 294 289 282 276 272 265 257 255 253
125 121 111 83 13 336 336 337 336 336 334 329 328 326 321 314 308 305 301 300 301 301 304 299 296 291 285 280 267 259 256 257
121 113 93 47 9 340 337 335 338 338 335 328 328 331 326 323 325 329 330 329 322 315 312 310 303 303 299 297 290 278 265 264
116 104 61 14 333 329 335 338 339 337 340 332 330 330 321 324 325 330 332 337 334 327 320 314 308 307 302 302 298 292 288 284
108 94 42 359 341 339 340 339 337 337 340 333 329 325 319 323 333 340 343 339 334 329 327 319 312 301 299 299 299 295 283 278
108 85 36 9 348 343 340 338 338 341 342 336 331 341 348 349 342 345 337 339 336 323 321 318 311 307 299 301 302 297 290 284
95 64 33 10 349 343 340 337 343 352 353 350 349 351 351 340 336 333 334 333 332 334 322 318 311 306 299 297 296 292 291 290
93 72 36 6 349 340 336 338 344 348 356 350 354 355 346 335 328 330 329 324 327 320 323 320 306 302 299 295 293 288 285 282
91 61 23 358 340 333 334 341 348 351 356 346 338 338 334 333 334 335 325 317 323 318 323 326 315 315 309 297 295 296 290 284
70 34 23 358 336 339 345 348 349 352 354 350 349 341 336 336 328 326 322 321 324 317 320 322 317 311 308 303 297 297 293 289
46 26 12 351 349 352 354 349 347 349 354 356 338 333 337 334 330 328 327 331 331 321 323 322 315 311 313 302 303 297 293 287
20 8 4 352 357 353 355 350 347 350 353 355 343 335 336 339 336 340 337 337 334 326 322 321 320 316 318 312 308 303 298 293
13 10 7 6 0 357 357 354 351 350 352 351 349 346 350 347 342 342 342 341 340 330 332 313 321 320 319 315 309 310 306 301
16 53 49 33 19 0 358 359 356 354 352 355 359 358 352 346 345 345 349 344 346 344 350 347 343 341 328 321 309 313 311 313
82 95 74 40 6 0 6 8 357 354 356 1 0 354 353 349 346 343 346 351 355 356 346 342 340 341 336 333 325 318 316 314
Height
1539 1540 1540 1541 1541 1541 1542 1542 1542 1542 1542 1540 1539 1538 1538 1537 1534 1531 1529 1527 1525 1523 1522 1521 1520 1521 1521 1520 1521 1521 1521 1521
1538 1540 1540 1541 1541 1541 1541 1541 1540 1540 1539 1537 1536 1535 1534 1532 1530 1528 1526 1524 1522 1519 1517 1516 1513 1512 1513 1513 1513 1513 1513 1513
1537 1539 1540 1540 1539 1540 1540 1539 1539 1538 1537 1535 1533 1532 1530 1529 1526 1524 1521 1519 1516 1514 1513 1511 1510 1508 1507 1507 1505 1504 1504 1505
1536 1537 1537 1537 1538 1538 1538 1537 1537 1536 1534 1532 1530 1529 1527 1523 1520 1517 1514 1511 1509 1508 1506 1505 1504 1502 1501 1501 1499 1497 1495 1497
1533 1534 1536 1536 1537 1537 1536 1536 1535 1533 1530 1528 1525 1522 1518 1515 1512 1510 1508 1505 1503 1500 1498 1496 1495 1494 1493 1493 1492 1490 1489 1489
1530 1533 1535 1535 1536 1535 1534 1533 1532 1530 1528 1525 1521 1517 1514 1510 1507 1504 1502 1500 1497 1494 1492 1489 1487 1485 1484 1483 1484 1483 1482 1481
1530 1533 1534 1535 1535 1534 1532 1532 1529 1528 1525 1522 1517 1513 1509 1506 1502 1499 1497 1494 1492 1489 1486 1483 1481 1479 1477 1475 1474 1474 1474 1472
1531 1532 1534 1534 1534 1533 1531 1529 1527 1525 1522 1517 1513 1509 1506 1502 1499 1496 1494 1490 1487 1483 1480 1477 1475 1473 1471 1469 1468 1466 1465 1464
1530 1531 1532 1532 1532 1531 1529 1528 1526 1523 1519 1513 1509 1506 1502 1499 1496 1494 1491 1487 1483 1479 1476 1472 1469 1467 1465 1463 1461 1460 1459 1457
1530 1531 1531 1530 1530 1529 1528 1526 1524 1520 1515 1509 1505 1502 1499 1497 1494 1491 1487 1484 1479 1475 1471 1467 1464 1461 1459 1457 1456 1454 1452 1451
1530 1530 1529 1529 1528 1528 1527 1524 1521 1517 1512 1507 1503 1499 1497 1494 1491 1488 1484 1480 1475 1470 1466 1462 1458 1456 1454 1452 1450 1449 1447 1446
1530 1530 1529 1528 1527 1527 1525 1523 1519 1515 1510 1505 1501 1497 1494 1491 1488 1484 1480 1475 1470 1465 1460 1456 1452 1449 1447 1445 1444 1442 1441 1440
1530 1530 1529 1527 1526 1525 1524 1521 1517 1513 1508 1502 1498 1494 1491 1487 1484 1480 1476 1470 1465 1460 1456 1451 1446 1444 1442 1440 1438 1436 1435 1433
1531 1530 1528 1527 1525 1524 1522 1519 1515 1510 1505 1500 1495 1491 1487 1483 1480 1475 1470 1464 1459 1454 1451 1446 1443 1440 1437 1435 1433 1430 1429 1427
1530 1528 1527 1526 1524 1523 1520 1516 1512 1508 1503 1497 1492 1488 1484 1480 1476 1472 1465 1459 1453 1449 1446 1442 1438 1435 1433 1430 1427 1424 1422 1420
1529 1528 1526 1524 1523 1521 1518 1514 1511 1506 1501 1495 1489 1485 1482 1477 1473 1468 1461 1456 1450 1445 1441 1438 1434 1431 1428 1425 1422 1418 1415 1412
1529 1527 1525 1524 1521 1519 1516 1512 1509 1505 1499 1493 1486 1483 1480 1475 1470 1465 1459 1452 1446 1441 1437 1433 1430 1427 1424 1421 1417 1414 1410 1406
1528 1527 1526 1524 1521 1517 1514 1511 1508 1503 1497 1491 1485 1481 1478 1474 1469 1463 1457 1449 1443 1439 1435 1431 1427 1424 1420 1416 1413 1409 1405 1401
1529 1526 1524 1522 1518 1515 1513 1510 1506 1502 1496 1489 1484 1480 1477 1472 1467 1461 1455 1448 1442 1438 1434 1430 1426 1422 1418 1413 1409 1405 1402 1398